Regional Weather Roundup
Issued by NWS

Home | Current Version | Previous Version | Text Only | Print | Product List | Glossary On
Versions: 1 2 3 4 5 6 7 8 9 10 11 12 13 14 15 16 17 18 19 20 21 22 23 24 25 26 27 28 29 30 31 32 33 34 35 36 37 38 39 40 41 42 43 44 45 46 47 48 49 50
000
ASUS42 KFFC 272310
RWRGA
WEATHER ROUNDUP FOR GEORGIA
NATIONAL WEATHER SERVICE PEACHTREE CITY GA
700 PM EDT SAT MAY 27 2017

NOTE: "FAIR" INDICATES FEW OR NO CLOUDS BELOW 12,000 FEET WITH NO
SIGNIFICANT WEATHER AND/OR OBSTRUCTIONS TO VISIBILITY.

* = USE WITH CAUTION. THE STATIONS MARKED WITH AN ASTERISK MAY NOT
REPORT WEATHER SUCH AS PRECIPITATION, FOG, OR THUNDER AND ARE NOT
QUALITY CONTROLLED BY NWS.

THE REMARK "TC" DENOTES TEMPERATURE READING IN DEGREES CELSIUS.

GAZ001>058-280000-
NORTH GEORGIA

CITY           SKY/WX    TMP DP  RH WIND       PRES   REMARKS
ATLANTA        MOSUNNY   80  67  64 SW12      29.98F
ATHENS         CLOUDY    82  67  60 VRB6      29.96S
CHAMBLEE       MOSUNNY   81  65  58 SW12      29.97S
PEACHTREE CITY CLOUDY    80  69  69 W6        29.99F
ROME           CLOUDY    83  70  64 SW5       29.94R
WEST ATLANTA   PTSUNNY   81  69  67 SW10      29.97S
GAINESVILLE    MOSUNNY   81  66  60 SW12      29.99S
CARTERSVILLE   PTSUNNY   81  71  71 S3        29.96S


CITY           SKY/WX    TMP DP  RH WIND       PRES   REMARKS
DALTON*        PTSUNNY   81  68  65 S3        29.94F
LAWRENCEVILLE* PTSUNNY   81  66  61 SW14G21   29.98S
MARIETTA       PTSUNNY   81  66  60 SW8       29.97F
KENNESAW*      MOSUNNY   82  68  61 W9        29.98F
CANTON*        MOSUNNY   81  57  44 W7        30.00R
$$

GAZ059>098-102>109-280000-
CENTRAL GEORGIA

CITY           SKY/WX    TMP DP  RH WIND       PRES   REMARKS
AUGUSTA-BUSH   SUNNY     90  56  31 W8        29.91F
AUGUSTA-DANIEL SUNNY     89  51  27 W8        29.94S
COLUMBUS       MOSUNNY   85  67  54 W12       29.97F
MACON          SUNNY     87  60  40 W10       29.96F
ROBINS AFB     SUNNY     88  60  39 W13       29.95F


CITY           SKY/WX    TMP DP  RH WIND       PRES   REMARKS
LAGRANGE*      SUNNY     84  75  74 W7        29.98F HX  91
SYLVANIA*      SUNNY     89  62  40 W7        29.94F
MILLEDGEVILLE* SUNNY     86  64  48 W7        29.96S
$$

GAZ099>101-110>166-280000-
SOUTH GEORGIA

CITY           SKY/WX    TMP DP  RH WIND       PRES   REMARKS
SAVANNAH       SUNNY     91  59  33 SW10      29.94F HX  90
VALDOSTA       SUNNY     87  61  41 SW7       29.99F
ALMA           SUNNY     90  56  31 W8        29.96F
ST SIMONS      SUNNY     82  71  69 S10       29.97F
FT STEWART     SUNNY     91  59  34 SW13      29.92F HX  90
ALBANY         SUNNY     87  65  47 W9        30.00F
HUNTER AFB     SUNNY     90  69  48 W6        29.91F HX  94
MOODY AFB      SUNNY     90  55  30 SW8       29.97F
BRUNSWICK      SUNNY     88  72  58 SE6       29.97F HX  94


CITY           SKY/WX    TMP DP  RH WIND       PRES   REMARKS
BAINBRIDGE*    SUNNY     86  64  48 SW7       30.00F
MOULTRIE*      SUNNY     88  61  40 W10       30.00F
VIDALIA*       SUNNY     90  61  37 W6        29.97S
WAYCROSS*      SUNNY     93  65  38 W7        29.97F HX  95
DOUGLAS*       SUNNY     90  54  29 W9        29.99F
$$



USA.gov is the U.S. government's official web portal to all federal, state and local government web resources and services.